Wind_Speed
32 31 31 30 29 28 28 27 25 24 23 21 21 20 19 18 17 17 16 15 14 15 14 14 14 13 13 13 12 12 12 13 12 13 13 14 13 13 13 12 13 13 13 13
34 33 32 31 31 30 29 28 27 26 25 23 22 21 20 20 20 19 18 17 17 16 16 16 15 15 15 14 14 14 15 15 15 15 15 14 15 14 14 13 14 14 15 15
33 34 33 33 31 31 31 30 29 28 27 25 24 23 22 21 21 21 20 19 19 19 19 18 18 18 18 17 16 16 17 17 17 17 16 16 17 16 16 16 16 16 16 17
33 35 35 33 33 33 32 32 31 31 31 29 27 26 25 24 23 23 22 22 22 22 21 21 21 20 20 20 19 19 19 19 19 19 19 19 19 19 19 18 18 18 18 18
35 35 35 36 34 33 33 33 33 33 33 32 30 29 28 27 26 25 25 24 24 24 24 24 23 23 23 22 21 21 21 21 21 21 21 21 21 21 21 20 19 19 19 19
36 35 34 35 34 33 33 34 34 33 33 33 31 31 30 29 28 28 28 27 27 27 26 26 25 25 24 24 24 23 23 23 23 23 23 23 23 23 22 22 21 20 20 20
36 36 34 35 33 33 34 34 33 33 33 33 33 32 31 30 30 30 30 29 29 29 29 28 27 27 27 27 27 26 26 26 25 25 25 25 25 24 24 23 23 22 22 22
36 35 35 35 35 35 35 34 33 33 33 33 34 33 32 31 31 31 31 31 31 31 31 31 31 30 30 30 29 29 29 28 28 28 28 27 27 27 26 25 24 24 24 24
35 36 35 35 35 35 35 34 33 33 34 34 34 33 32 32 32 33 33 33 33 33 32 33 33 33 33 33 32 32 31 31 31 31 30 29 28 28 27 27 26 26 26 26
35 35 36 36 35 35 34 34 33 33 34 34 34 34 34 34 34 34 35 35 35 34 33 34 34 34 34 34 33 33 33 33 33 32 31 30 29 29 29 29 29 28 28 28
35 35 35 36 36 36 35 35 35 34 34 35 35 35 35 35 35 35 35 36 36 35 35 35 35 35 35 35 34 34 34 34 34 33 32 32 31 30 30 30 30 30 29 30
36 35 36 36 36 36 36 35 35 35 35 36 36 36 36 36 36 36 36 37 36 36 36 37 36 36 36 36 36 35 35 36 35 35 34 33 33 32 32 32 31 31 31 32
36 37 37 36 36 36 36 36 36 35 36 37 36 36 36 36 37 37 38 38 37 38 38 38 38 37 37 37 37 36 35 36 36 36 36 35 35 34 34 34 33 33 33 34
36 37 37 37 36 36 36 37 37 35 35 36 36 36 37 38 38 38 39 40 40 39 39 39 39 39 38 38 38 37 37 37 37 37 38 37 37 37 36 35 35 35 34 34
35 36 37 38 38 38 37 37 37 37 35 35 36 37 37 38 38 38 39 40 40 40 40 40 40 39 40 39 39 38 38 38 38 38 38 38 38 38 38 37 36 36 36 35
35 36 37 38 38 38 38 38 38 37 36 36 37 37 37 38 38 38 39 39 40 40 40 40 41 40 41 40 40 39 39 38 38 39 39 39 39 39 38 37 37 37 36 36
35 35 36 37 37 37 37 37 37 37 37 37 37 38 38 38 39 38 38 39 39 40 40 40 40 40 40 40 40 40 39 39 38 39 39 38 38 37 37 37 37 37 36 36
34 35 35 35 36 38 38 37 38 38 38 37 37 37 37 38 38 37 37 38 39 39 39 39 39 39 39 39 39 39 39 38 38 38 37 37 37 37 37 36 36 36 36 36
32 33 33 33 34 34 35 36 36 36 37 36 37 37 36 36 36 36 37 37 37 37 37 38 37 37 37 37 37 37 36 36 36 37 37 36 36 36 36 35 35 35 36 35
29 31 31 31 31 32 32 33 33 34 34 35 34 34 34 35 35 35 35 35 35 35 36 36 36 36 37 37 37 36 35 34 34 35 36 36 36 36 36 36 35 34 34 33
27 28 28 30 30 30 30 31 32 32 33 33 32 31 32 33 34 34 33 33 34 34 34 34 35 36 36 35 35 35 34 34 33 33 34 35 35 35 35 35 34 33 32 31
25 25 26 26 26 27 28 28 30 31 31 30 30 30 31 31 32 33 33 32 32 33 33 33 33 34 34 34 34 33 33 33 34 34 34 34 35 35 34 34 33 31 31 31
22 23 23 24 25 25 25 25 26 26 27 27 27 28 28 29 29 30 30 31 31 31 31 31 31 32 32 33 33 33 34 34 34 34 33 32 32 32 32 31 30 30 30 31
19 20 20 21 22 22 22 22 23 23 24 25 25 26 26 28 28 29 29 29 30 30 30 30 31 32 33 33 33 34 34 34 34 33 32 32 31 30 30 30 29 29 30 30
18 17 17 18 18 18 19 20 21 22 23 23 23 24 25 26 27 28 28 28 29 30 30 31 31 32 32 33 33 33 33 33 33 32 31 30 29 29 29 29 29 30 30 29
16 16 16 16 17 17 18 19 19 20 20 21 22 23 23 24 25 26 26 26 27 28 29 29 30 30 30 30 30 31 31 31 30 29 29 29 29 29 28 29 28 28 28 29
14 14 15 15 16 17 17 18 18 18 19 20 21 22 22 23 24 24 24 25 25 26 26 27 28 28 29 29 28 28 28 28 28 28 28 28 27 27 27 27 26 26 26 26
Wind_Direction
233 235 239 241 241 241 241 241 243 247 250 251 253 253 251 251 252 252 256 262 263 265 268 271 276 279 283 285 288 290 292 295 298 302 307 310 308 306 305 301 303 305 308 307
235 237 240 241 241 242 242 243 245 247 249 249 250 251 250 248 249 251 254 258 261 264 266 268 272 275 277 282 285 287 290 293 294 297 302 303 304 304 304 300 301 303 304 304
236 238 240 241 242 242 242 243 245 247 248 248 249 250 250 250 251 253 254 257 259 261 263 266 269 273 275 280 282 285 287 291 292 294 296 296 297 298 300 298 297 300 300 301
237 239 241 242 243 243 243 244 245 246 248 248 249 249 250 250 251 253 256 257 258 260 262 265 267 269 271 275 280 282 285 288 290 292 291 291 292 293 294 296 295 294 295 297
237 241 244 244 243 244 245 246 245 246 248 249 249 249 248 249 250 253 255 257 259 260 262 264 265 267 269 272 276 280 283 285 286 288 289 289 290 291 290 290 292 291 291 293
237 239 242 245 245 245 247 247 246 247 248 249 250 250 249 248 250 253 254 256 257 259 261 263 265 266 268 270 272 275 279 282 285 286 287 289 291 289 286 286 286 286 286 290
237 240 242 244 245 246 247 248 248 247 248 248 249 249 249 249 249 251 253 255 257 259 261 263 265 266 267 269 271 273 276 279 282 284 285 286 288 286 284 282 281 281 282 285
238 240 243 245 246 247 249 250 249 248 247 248 249 249 248 248 249 250 252 255 257 259 261 263 265 267 267 268 270 271 273 276 278 281 282 284 285 284 283 281 279 279 280 283
239 241 244 247 249 250 250 250 249 249 249 248 248 248 248 248 249 250 252 254 257 259 260 262 264 266 267 268 269 270 272 274 276 278 279 281 282 282 282 281 280 279 281 282
240 242 243 246 248 250 250 249 250 250 249 248 248 248 248 249 249 250 253 255 257 259 260 262 264 265 267 267 268 269 271 273 275 277 277 279 280 281 281 280 278 279 281 280
241 243 245 246 248 249 250 251 251 251 250 250 250 249 249 250 250 252 254 256 257 259 260 261 263 265 266 267 268 270 271 272 273 275 276 277 277 278 279 279 279 280 278 278
242 244 246 247 248 249 249 249 251 251 251 251 252 252 251 250 252 253 255 257 257 258 259 261 262 264 266 268 269 269 271 272 272 274 274 275 276 276 276 278 278 279 281 280
246 245 246 247 248 249 249 249 250 251 250 251 252 253 253 253 254 255 256 258 258 259 260 261 262 263 265 267 268 269 270 272 273 274 274 275 275 275 275 275 276 278 280 279
246 247 247 248 248 249 250 251 251 250 250 253 254 255 255 255 256 256 257 258 260 259 260 261 262 263 265 266 268 268 270 271 273 273 273 273 274 275 275 274 274 275 277 279
247 247 248 249 249 250 251 251 252 253 253 254 256 257 256 256 257 258 259 260 261 261 260 261 263 264 265 267 267 268 270 272 272 272 273 272 272 273 274 274 275 275 275 277
248 248 249 249 249 250 250 251 253 254 254 255 256 257 257 257 258 259 260 261 261 261 260 262 263 263 264 266 267 268 268 270 272 272 272 273 273 273 274 275 276 276 276 277
250 250 251 250 248 248 249 251 252 254 255 256 256 257 258 258 259 260 261 261 261 261 262 262 263 263 264 266 267 267 268 269 271 271 271 271 274 274 275 274 273 276 277 278
252 252 252 251 250 250 251 252 253 254 256 256 256 256 257 259 259 260 261 260 260 261 263 264 264 264 266 266 267 267 268 269 270 270 271 271 274 276 276 275 274 276 277 277
253 253 253 252 250 251 251 252 253 255 255 256 257 256 255 256 258 259 260 261 262 262 263 263 264 265 266 266 266 268 270 270 270 269 269 271 273 276 275 275 276 276 276 276
252 252 251 249 250 251 251 250 252 254 256 258 258 256 256 257 258 259 260 260 261 262 263 263 263 263 264 265 266 268 269 269 270 270 270 270 273 275 275 275 276 276 276 275
254 254 253 250 249 250 251 252 253 255 258 258 258 256 257 258 258 259 261 262 263 263 263 263 263 263 263 264 266 266 267 268 269 271 272 273 274 274 275 275 275 274 274 274
253 255 254 252 250 251 252 252 253 255 257 256 255 256 258 259 259 260 262 263 263 262 263 262 262 262 262 263 264 264 266 268 270 272 273 273 274 273 273 274 273 272 274 275
253 253 252 251 252 253 252 251 253 256 256 255 255 256 258 260 261 263 264 263 264 263 263 262 262 262 262 263 264 264 266 268 271 272 273 273 273 272 272 273 272 272 274 275
252 252 251 252 252 253 252 252 253 254 256 256 257 259 259 261 262 263 266 265 264 264 263 263 263 262 262 262 263 264 265 268 270 271 272 272 272 271 270 272 272 273 274 274
251 250 249 247 249 251 251 252 253 255 257 257 259 260 262 264 265 267 269 268 265 264 264 264 264 263 262 262 263 264 265 267 268 269 269 270 271 271 270 270 273 274 274 274
250 248 245 245 249 253 256 257 257 256 256 257 259 263 264 266 268 270 269 267 265 265 264 264 264 262 261 262 263 263 263 264 266 267 267 268 269 269 270 271 272 274 275 276
248 247 246 249 253 257 259 261 260 261 262 263 265 267 267 268 270 270 267 267 267 267 266 266 265 264 264 264 266 266 266 265 264 264 266 267 269 271 271 270 271 273 274 275
Height
5873 5876 5879 5882 5885 5888 5890 5893 5897 5899 5900 5902 5903 5904 5905 5906 5907 5908 5909 5909 5909 5909 5909 5908 5908 5907 5907 5906 5905 5904 5902 5901 5900 5899 5897 5895 5893 5892 5890 5889 5887 5885 5883 5881
5865 5868 5871 5874 5878 5881 5884 5886 5889 5892 5894 5896 5897 5898 5900 5901 5902 5903 5904 5905 5905 5905 5905 5905 5904 5904 5903 5902 5901 5900 5899 5898 5896 5895 5894 5892 5890 5889 5887 5885 5884 5882 5880 5878
5858 5861 5863 5867 5871 5873 5876 5879 5883 5884 5888 5889 5891 5892 5894 5896 5897 5898 5899 5900 5900 5900 5900 5900 5900 5899 5899 5898 5897 5896 5895 5894 5893 5891 5890 5889 5887 5885 5884 5882 5880 5878 5877 5875
5850 5853 5855 5862 5863 5866 5869 5872 5875 5877 5879 5882 5884 5886 5887 5889 5890 5892 5893 5894 5894 5894 5894 5894 5894 5894 5894 5893 5892 5892 5891 5889 5888 5887 5886 5884 5883 5881 5879 5878 5876 5874 5872 5871
5842 5844 5847 5852 5855 5858 5860 5863 5866 5869 5871 5873 5876 5878 5880 5882 5883 5885 5886 5887 5887 5888 5888 5888 5888 5888 5888 5887 5887 5886 5885 5884 5883 5882 5880 5878 5877 5875 5874 5872 5871 5869 5867 5865
5833 5836 5840 5844 5846 5849 5852 5854 5857 5860 5863 5865 5868 5870 5872 5874 5876 5877 5878 5879 5880 5881 5881 5882 5882 5882 5881 5881 5880 5880 5879 5879 5878 5876 5875 5873 5871 5869 5868 5866 5865 5863 5862 5860
5824 5827 5831 5834 5837 5840 5844 5846 5849 5851 5854 5856 5859 5861 5864 5865 5867 5869 5870 5871 5872 5873 5874 5874 5875 5875 5874 5874 5874 5873 5873 5872 5871 5870 5869 5867 5865 5863 5861 5860 5858 5857 5856 5854
5815 5819 5824 5825 5828 5831 5833 5836 5839 5842 5844 5847 5849 5852 5854 5856 5858 5860 5861 5863 5864 5865 5866 5866 5866 5867 5866 5866 5866 5866 5865 5865 5864 5863 5862 5860 5859 5857 5855 5853 5852 5850 5849 5848
5808 5812 5814 5816 5818 5821 5824 5827 5829 5832 5835 5837 5840 5842 5844 5847 5849 5851 5852 5854 5855 5856 5856 5857 5857 5858 5858 5858 5858 5857 5857 5856 5856 5855 5854 5853 5851 5849 5848 5846 5844 5842 5842 5841
5798 5802 5804 5806 5808 5811 5814 5817 5819 5822 5825 5827 5830 5832 5835 5837 5839 5841 5842 5843 5845 5846 5847 5847 5848 5848 5849 5849 5848 5848 5848 5847 5847 5846 5845 5844 5843 5841 5840 5838 5837 5835 5833 5833
5789 5792 5794 5797 5799 5802 5804 5807 5809 5812 5814 5817 5819 5822 5824 5827 5829 5831 5832 5833 5835 5836 5837 5837 5838 5838 5839 5838 5838 5838 5838 5838 5837 5836 5836 5835 5834 5833 5831 5830 5828 5826 5825 5825
5779 5782 5785 5787 5790 5792 5794 5797 5799 5802 5804 5806 5808 5811 5813 5816 5818 5820 5821 5823 5824 5825 5826 5827 5828 5828 5828 5828 5828 5828 5828 5827 5827 5826 5826 5825 5824 5823 5822 5821 5820 5818 5817 5816
5770 5772 5775 5777 5780 5782 5784 5786 5788 5791 5793 5796 5798 5800 5802 5805 5807 5809 5810 5811 5813 5814 5815 5816 5817 5817 5818 5818 5818 5818 5817 5817 5816 5816 5815 5815 5814 5813 5812 5812 5810 5809 5808 5807
5759 5762 5765 5767 5770 5772 5774 5776 5778 5780 5783 5785 5787 5789 5791 5793 5795 5797 5798 5800 5801 5802 5803 5804 5805 5806 5806 5806 5807 5807 5806 5806 5806 5805 5805 5804 5804 5802 5801 5801 5801 5799 5799 5797
5749 5752 5754 5757 5759 5761 5763 5765 5767 5769 5771 5774 5776 5778 5780 5782 5784 5785 5786 5787 5789 5790 5791 5792 5793 5794 5794 5794 5794 5795 5795 5795 5795 5794 5793 5793 5792 5791 5790 5790 5789 5789 5788 5787
5739 5741 5743 5745 5748 5750 5752 5754 5756 5758 5760 5762 5764 5766 5768 5770 5772 5773 5774 5775 5776 5778 5779 5780 5781 5781 5782 5782 5783 5783 5783 5784 5783 5782 5782 5781 5780 5779 5778 5778 5778 5778 5777 5777
5729 5731 5733 5734 5737 5739 5741 5743 5745 5747 5749 5751 5753 5755 5757 5758 5760 5761 5762 5763 5764 5765 5766 5767 5768 5769 5769 5770 5770 5771 5771 5771 5771 5770 5769 5769 5768 5767 5766 5767 5767 5767 5766 5766
5719 5721 5722 5724 5726 5728 5730 5732 5734 5736 5738 5739 5741 5743 5745 5746 5748 5749 5749 5750 5751 5752 5753 5754 5755 5756 5757 5758 5758 5758 5759 5759 5759 5759 5758 5758 5757 5757 5756 5756 5755 5755 5755 5754
5709 5710 5712 5713 5715 5717 5719 5721 5723 5725 5727 5728 5730 5732 5733 5735 5736 5737 5737 5738 5739 5740 5741 5742 5743 5744 5745 5746 5747 5747 5747 5748 5748 5748 5747 5747 5747 5746 5746 5745 5744 5744 5743 5743
5700 5701 5702 5704 5706 5707 5709 5711 5713 5715 5716 5718 5720 5721 5722 5724 5725 5726 5726 5727 5728 5729 5730 5730 5731 5732 5734 5734 5735 5736 5736 5737 5737 5737 5737 5736 5736 5735 5735 5734 5734 5733 5732 5732
5692 5693 5694 5695 5697 5698 5700 5702 5704 5705 5707 5708 5710 5711 5712 5714 5715 5715 5716 5717 5718 5719 5719 5720 5721 5722 5722 5723 5724 5725 5726 5726 5726 5726 5726 5725 5725 5724 5724 5723 5723 5722 5722 5722
5684 5685 5686 5687 5689 5690 5692 5693 5695 5696 5697 5699 5700 5701 5703 5704 5705 5706 5706 5707 5708 5708 5709 5710 5711 5711 5712 5713 5713 5714 5715 5716 5716 5716 5715 5715 5714 5713 5713 5712 5712 5712 5712 5712
5677 5678 5679 5680 5681 5683 5684 5685 5687 5688 5689 5691 5692 5693 5694 5695 5695 5696 5697 5697 5698 5698 5699 5700 5701 5701 5702 5702 5703 5704 5705 5705 5705 5705 5705 5704 5703 5703 5702 5702 5702 5702 5702 5702
5671 5672 5673 5674 5675 5676 5677 5679 5680 5681 5682 5683 5684 5685 5685 5686 5686 5687 5686 5687 5688 5688 5689 5690 5690 5691 5692 5692 5693 5694 5694 5695 5695 5695 5695 5694 5694 5693 5693 5693 5692 5692 5692 5692
5666 5667 5668 5669 5670 5671 5672 5673 5674 5675 5676 5677 5677 5678 5678 5678 5678 5678 5678 5678 5678 5679 5680 5680 5680 5681 5681 5682 5683 5684 5684 5684 5684 5685 5685 5685 5684 5684 5684 5683 5683 5683 5682 5682
5661 5662 5663 5664 5665 5666 5667 5668 5668 5669 5669 5670 5670 5670 5670 5670 5670 5669 5669 5669 5669 5670 5670 5671 5671 5671 5671 5672 5672 5673 5673 5674 5674 5675 5675 5675 5675 5675 5675 5674 5674 5673 5673 5673
5657 5658 5659 5660 5660 5661 5662 5662 5663 5663 5663 5663 5664 5663 5663 5662 5662 5661 5661 5661 5661 5662 5662 5662 5662 5662 5662 5663 5663 5664 5664 5665 5665 5666 5666 5666 5666 5666 5666 5666 5665 5665 5665 5664